Location: Harwich
(41.7160°N, 69.9939°W)
Time: 13:14:50
(UTC+01:00)

A-11 Canister half - Pass Details

Date: 03 December 2023
Orbit: 1526 x 1682 km, 47.3° (Epoch: 01 March)

Event Time Altitude Azimuth Distance (km) Brightness Sun altitude
Rises 06:15:36 0° 293° (WNW) 4,911 - -68.1°
Reaches altitude 10° 06:18:48 10° 294° (WNW) 3,908 - -67.8°
Maximum altitude 06:28:50 86° 24° (NNE) 1,627 - -66.7°
Drops below altitude 10° 06:38:31 10° 115° (ESE) 3,777 - -65.6°
Sets 06:41:33 0° 116° (ESE) 4,741 - -65.2°
